Minot, ND

3:32 PM CDT on September 28, 2016 (GMT -0500)
Minot International

Weather History for KMOT - January, 2012

Change the Weather History Date:

Tuesday, January 10, 2012

  Actual Average Record
Temperature  
Mean Temperature 39 °F 12 °F  
Max Temperature 46 °F 20 °F 49 °F (1990)
Min Temperature 32 °F 3 °F -29 °F (1982)
Degree Days  
Heating Degree Days 26 53  
Month to date heating degree days 308 530  
Since 1 July heating degree days 3198 4125  
Moisture  
Dew Point 27 °F    
Average Humidity 66    
Maximum Humidity 82    
Minimum Humidity 49    
Precipitation  
Precipitation T in 0.01 in 1.00 in (1916)
Month to date precipitation T 0.17  
Year to date precipitation T 0.17  
Sea Level Pressure  
Sea Level Pressure 29.78 in    
Wind  
Wind Speed 16 mph (West)    
Max Wind Speed 31 mph    
Max Gust Speed 36 mph    
Visibility 10 miles    
Events      
T = Trace of Precipitation, MM = Missing Value Source: NWS Daily Summary

Daily Weather History Graph

Daily Weather History Graph

Search for Another Location

Airport or City:

Trip Planner

Search our weather history database for the weather conditions in past years. The results will help you decide how hot, cold, wet, or windy it might be!

Date:

Astronomy

Jan. 10, 2012 Rise Set
Actual Time 8:34 AM CST 5:11 PM CST
Civil Twilight 7:58 AM CST 5:47 PM CST
Nautical Twilight 7:19 AM CST 6:26 PM CST
Astronomical Twilight 6:41 AM CST 7:03 PM CST
Moon 7:16 PM CST (1/10) 9:03 AM CST (1/10)
Length of Visible Light 9h 48m
Length of Day
8h 37m
Full, 98% of the Moon is Illuminated
Jan 10
Full
Jan 16
Last Quarter
Jan 23
New
Jan 30
First Quarter
Feb 7
Full

Hourly Weather History & Observations

Time (CST) Temp. Windchill Dew Point Humidity Pressure Visibility Wind Dir Wind Speed Gust Speed Precip Events Conditions
12:54 AM 44.1 °F 37.1 °F 28.0 °F 53% 29.77 in 10.0 mi WSW 15.0 mph - N/A   Clear
1:54 AM 42.1 °F 34.9 °F 28.0 °F 58% 29.77 in 10.0 mi WSW 13.8 mph - N/A   Clear
2:54 AM 39.9 °F 31.4 °F 28.0 °F 63% 29.78 in 10.0 mi WSW 16.1 mph - N/A   Clear
3:54 AM 41.0 °F 33.5 °F 28.0 °F 60% 29.78 in 10.0 mi WSW 13.8 mph - N/A   Clear
4:54 AM 39.9 °F 31.1 °F 27.0 °F 60% 29.78 in 10.0 mi WSW 17.3 mph - N/A   Clear
5:54 AM 39.9 °F 32.1 °F 27.0 °F 60% 29.78 in 10.0 mi WSW 13.8 mph - N/A   Clear
6:54 AM 37.9 °F 29.2 °F 27.0 °F 65% 29.80 in 10.0 mi SW 15.0 mph - N/A   Clear
7:54 AM 37.0 °F 29.3 °F 26.1 °F 65% 29.78 in 10.0 mi WSW 11.5 mph - N/A   Clear
8:54 AM 37.0 °F 28.9 °F 26.1 °F 65% 29.77 in 10.0 mi WSW 12.7 mph - N/A   Clear
9:54 AM 37.9 °F 30.9 °F 26.1 °F 62% 29.75 in 10.0 mi WSW 10.4 mph - N/A   Clear
10:54 AM 42.1 °F 36.1 °F 27.0 °F 55% 29.73 in 10.0 mi WSW 10.4 mph - N/A   Overcast
11:54 AM 45.0 °F 39.3 °F 28.0 °F 52% 29.71 in 10.0 mi West 11.5 mph - N/A   Overcast
12:54 PM 44.1 °F 39.5 °F 28.0 °F 53% 29.69 in 10.0 mi SW 8.1 mph - N/A   Overcast
1:54 PM 46.0 °F 40.2 °F 28.0 °F 50% 29.68 in 10.0 mi West 12.7 mph - N/A   Overcast
2:54 PM 45.0 °F 38.5 °F 30.0 °F 56% 29.68 in 10.0 mi West 13.8 mph - N/A   Overcast
3:54 PM 43.0 °F 34.5 °F 32.0 °F 65% 29.70 in 10.0 mi WNW 19.6 mph - N/A   Overcast
4:54 PM 37.9 °F 28.9 °F 32.0 °F 79% 29.73 in 10.0 mi WNW 16.1 mph - 0.00 in   Overcast
5:54 PM 37.0 °F 28.1 °F 27.0 °F 67% 29.75 in 10.0 mi WNW 15.0 mph - N/A   Overcast
6:54 PM 36.0 °F 24.4 °F 25.0 °F 64% 29.78 in 10.0 mi WNW 23.0 mph 31.1 mph N/A   Overcast
7:54 PM 35.1 °F 23.3 °F 25.0 °F 67% 29.82 in 10.0 mi WNW 23.0 mph 31.1 mph N/A   Overcast
8:54 PM 34.0 °F 22.4 °F 25.0 °F 70% 29.85 in 10.0 mi NW 20.7 mph 28.8 mph N/A   Overcast
9:25 PM 33.8 °F 22.2 °F 24.8 °F 70% 29.80 in 10.0 mi NW 20.7 mph 32.2 mph N/A   Overcast
9:54 PM 33.1 °F 21.9 °F 24.1 °F 70% 29.87 in 10.0 mi NW 18.4 mph 28.8 mph N/A   Overcast
10:18 PM 33.8 °F 21.9 °F 24.8 °F 70% 29.82 in 10.0 mi WNW 21.9 mph 28.8 mph N/A   Overcast
10:41 PM 33.8 °F 22.8 °F 24.8 °F 70% 29.83 in 10.0 mi WNW 18.4 mph 26.5 mph N/A   Overcast
10:54 PM 34.0 °F 22.7 °F 24.1 °F 67% 29.89 in 10.0 mi NW 19.6 mph 31.1 mph N/A   Overcast
11:32 PM 33.8 °F 22.2 °F 23.0 °F 65% 29.85 in 10.0 mi WNW 20.7 mph 32.2 mph N/A   Overcast
11:54 PM 32.0 °F 19.5 °F 21.9 °F 66% 29.91 in 10.0 mi WNW 21.9 mph 35.7 mph N/A   Overcast